Total_Precipitation_Accumulation
0.00 0.00 0.00 0.00 0.00 0.00 0.00 0.00 0.00 0.00 0.00 0.00 0.00 0.00 0.03 0.06 0.06 0.14 0.20 0.29 0.29 0.37 0.57 0.62 0.84 0.84 1.00 1.35 1.17 1.17 0.81 0.57 0.39 0.39 0.32 0.46 0.46 0.42 0.73 0.87 0.87 1.09 1.10 0.97 0.72 0.72 0.45 0.03 0.00 0.00 0.00 0.00 0.00 0.00 0.00 0.04 0.04 0.28 0.04 0.00 0.00 0.06 0.07 0.10 0.16 0.16 0.07 0.01 0.00 0.00 0.00 0.00 0.00 0.00 0.02 0.00 0.00 0.00 0.00 0.00 0.00 0.00 0.00 0.01 0.01 0.01 0.00 0.01 0.03 0.03 0.02 0.01 0.00 0.00 0.00 0.00 0.00 0.00 0.00 0.00 0.00 0.00 0.00
0.00 0.00 0.00 0.00 0.00 0.00 0.00 0.00 0.00 0.00 0.00 0.00 0.00 0.00 0.03 0.07 0.07 0.15 0.21 0.31 0.31 0.38 0.55 0.64 0.73 0.73 0.96 1.09 1.12 1.12 1.04 0.66 0.55 0.55 0.35 0.29 0.29 0.25 0.37 0.74 0.74 1.02 1.03 0.85 0.75 0.75 0.54 0.07 0.01 0.01 0.00 0.00 0.00 0.00 0.00 0.00 0.00 0.00 0.03 0.03 0.03 0.06 0.09 0.14 0.14 0.14 0.07 0.05 0.00 0.00 0.00 0.00 0.00 0.00 0.01 0.00 0.00 0.00 0.00 0.00 0.00 0.00 0.00 0.01 0.01 0.01 0.01 0.02 0.02 0.02 0.02 0.00 0.00 0.00 0.00 0.00 0.00 0.00 0.00 0.00 0.00 0.00 0.00
0.00 0.00 0.00 0.00 0.00 0.00 0.00 0.00 0.00 0.00 0.00 0.00 0.00 0.00 0.03 0.07 0.07 0.17 0.23 0.33 0.33 0.36 0.45 0.63 0.72 0.72 0.86 1.14 1.51 1.51 1.09 0.84 0.60 0.60 0.35 0.30 0.30 0.17 0.21 0.48 0.48 0.65 1.00 0.77 0.49 0.49 0.52 0.33 0.00 0.00 0.00 0.00 0.00 0.00 0.00 0.00 0.00 0.00 0.00 0.03 0.03 0.07 0.08 0.23 0.20 0.20 0.07 0.02 0.00 0.00 0.00 0.00 0.01 0.01 0.01 0.00 0.00 0.00 0.00 0.00 0.00 0.00 0.01 0.01 0.01 0.01 0.01 0.03 0.01 0.01 0.01 0.00 0.00 0.00 0.00 0.00 0.00 0.00 0.00 0.00 0.00 0.00 0.00
0.00 0.00 0.00 0.00 0.00 0.00 0.00 0.00 0.00 0.00 0.00 0.00 0.00 0.00 0.02 0.06 0.06 0.07 0.25 0.34 0.34 0.38 0.43 0.64 0.77 0.77 0.83 1.04 1.69 1.69 1.56 0.87 0.71 0.71 0.40 0.30 0.30 0.22 0.12 0.20 0.20 0.37 0.58 0.59 0.55 0.55 0.29 0.21 0.03 0.03 0.00 0.00 0.00 0.00 0.00 0.00 0.00 0.03 0.01 0.03 0.03 0.09 0.11 0.19 0.16 0.16 0.05 0.02 0.00 0.00 0.00 0.00 0.01 0.01 0.01 0.00 0.00 0.00 0.00 0.00 0.00 0.00 0.01 0.01 0.01 0.01 0.02 0.02 0.01 0.01 0.01 0.00 0.00 0.00 0.00 0.00 0.00 0.00 0.00 0.00 0.00 0.00 0.00
0.00 0.00 0.00 0.00 0.00 0.00 0.00 0.00 0.00 0.00 0.00 0.00 0.00 0.00 0.01 0.06 0.06 0.08 0.27 0.34 0.34 0.41 0.45 0.63 0.76 0.76 0.92 1.01 1.49 1.49 1.87 0.98 0.77 0.77 0.61 0.32 0.32 0.28 0.17 0.13 0.13 0.23 0.28 0.28 0.36 0.36 0.21 0.05 0.07 0.07 0.00 0.00 0.00 0.00 0.00 0.00 0.00 0.04 0.02 0.05 0.05 0.10 0.15 0.18 0.15 0.15 0.08 0.01 0.04 0.04 0.00 0.00 0.01 0.01 0.00 0.00 0.00 0.00 0.00 0.00 0.00 0.01 0.01 0.00 0.01 0.01 0.02 0.01 0.01 0.01 0.00 0.00 0.00 0.00 0.00 0.00 0.00 0.00 0.00 0.00 0.00 0.00 0.00
0.00 0.00 0.00 0.00 0.01 0.01 0.01 0.01 0.00 0.00 0.00 0.00 0.00 0.00 0.01 0.05 0.05 0.09 0.26 0.31 0.31 0.44 0.48 0.63 0.74 0.74 1.01 1.11 0.95 0.95 1.66 1.92 1.00 1.00 0.70 0.50 0.50 0.34 0.19 0.13 0.13 0.14 0.14 0.06 0.17 0.17 0.22 0.03 0.01 0.01 0.00 0.00 0.00 0.00 0.00 0.00 0.00 0.04 0.01 0.06 0.06 0.12 0.14 0.14 0.10 0.10 0.02 0.01 0.07 0.07 0.02 0.00 0.02 0.02 0.00 0.00 0.00 0.00 0.00 0.00 0.00 0.01 0.01 0.01 0.01 0.01 0.02 0.01 0.00 0.00 0.00 0.00 0.00 0.00 0.00 0.00 0.00 0.00 0.00 0.00 0.00 0.00 0.00
0.00 0.00 0.00 0.00 0.01 0.01 0.01 0.01 0.01 0.01 0.01 0.00 0.00 0.00 0.01 0.06 0.06 0.10 0.21 0.32 0.32 0.49 0.53 0.55 0.71 0.71 0.90 1.35 1.17 1.17 1.23 1.69 1.41 1.41 0.96 0.67 0.67 0.41 0.26 0.11 0.11 0.10 0.08 0.01 0.05 0.05 0.09 0.02 0.01 0.01 0.00 0.00 0.00 0.00 0.00 0.00 0.00 0.02 0.02 0.09 0.09 0.13 0.14 0.12 0.12 0.12 0.00 0.00 0.06 0.06 0.00 0.00 0.02 0.02 0.01 0.00 0.00 0.00 0.00 0.00 0.00 0.01 0.01 0.01 0.02 0.02 0.01 0.00 0.00 0.00 0.00 0.00 0.00 0.00 0.00 0.00 0.00 0.00 0.00 0.00 0.00 0.00 0.00
0.00 0.00 0.00 0.00 0.01 0.01 0.01 0.01 0.01 0.01 0.01 0.01 0.01 0.01 0.02 0.07 0.07 0.08 0.14 0.27 0.27 0.37 0.60 0.59 0.63 0.63 0.83 1.35 1.38 1.38 1.10 1.28 1.60 1.60 1.32 1.21 1.21 0.65 0.39 0.13 0.13 0.10 0.04 0.02 0.01 0.01 0.03 0.05 0.00 0.00 0.00 0.00 0.00 0.00 0.00 0.00 0.00 0.01 0.03 0.07 0.07 0.18 0.11 0.12 0.11 0.11 0.00 0.00 0.03 0.03 0.00 0.00 0.02 0.02 0.01 0.00 0.00 0.00 0.00 0.01 0.01 0.02 0.01 0.01 0.01 0.01 0.01 0.00 0.00 0.00 0.00 0.00 0.00 0.00 0.00 0.00 0.00 0.00 0.00 0.00 0.00 0.00 0.00
0.00 0.00 0.00 0.00 0.00 0.00 0.01 0.01 0.01 0.01 0.01 0.01 0.01 0.01 0.01 0.03 0.03 0.06 0.10 0.26 0.26 0.34 0.61 0.63 0.60 0.60 0.66 1.27 1.50 1.50 1.45 1.15 1.25 1.25 1.37 1.22 1.22 0.94 0.56 0.18 0.18 0.10 0.09 0.00 0.01 0.01 0.06 0.07 0.00 0.00 0.01 0.00 0.00 0.00 0.00 0.00 0.00 0.00 0.06 0.10 0.10 0.14 0.10 0.11 0.12 0.12 0.01 0.00 0.06 0.06 0.00 0.00 0.02 0.02 0.01 0.00 0.00 0.00 0.00 0.01 0.01 0.02 0.01 0.01 0.01 0.01 0.01 0.00 0.00 0.00 0.00 0.00 0.00 0.00 0.00 0.00 0.00 0.00 0.00 0.00 0.00 0.00 0.00
0.00 0.00 0.00 0.00 0.00 0.00 0.00 0.01 0.02 0.02 0.02 0.02 0.01 0.01 0.03 0.06 0.06 0.07 0.10 0.28 0.28 0.34 0.55 0.65 0.61 0.61 0.62 0.77 1.43 1.43 1.59 1.42 1.25 1.25 1.19 1.03 1.03 1.12 0.88 0.52 0.52 0.17 0.10 0.00 0.01 0.01 0.06 0.07 0.05 0.05 0.01 0.00 0.00 0.00 0.00 0.00 0.00 0.00 0.14 0.13 0.13 0.15 0.09 0.12 0.12 0.12 0.01 0.00 0.06 0.06 0.05 0.00 0.03 0.03 0.02 0.00 0.00 0.00 0.00 0.03 0.03 0.06 0.01 0.01 0.01 0.01 0.00 0.00 0.00 0.00 0.00 0.00 0.00 0.00 0.00 0.00 0.00 0.00 0.00 0.00 0.00 0.00 0.00
0.00 0.00 0.00 0.00 0.00 0.00 0.00 0.02 0.03 0.03 0.03 0.04 0.04 0.04 0.06 0.08 0.08 0.07 0.10 0.33 0.33 0.38 0.42 0.57 0.63 0.63 0.65 0.69 1.20 1.20 1.47 1.77 1.65 1.65 1.33 1.03 1.03 0.90 1.07 0.85 0.85 0.25 0.20 0.01 0.01 0.01 0.01 0.07 0.05 0.05 0.01 0.00 0.00 0.00 0.00 0.00 0.00 0.00 0.03 0.14 0.14 0.16 0.09 0.13 0.14 0.14 0.09 0.00 0.05 0.05 0.05 0.04 0.04 0.04 0.02 0.00 0.00 0.00 0.00 0.05 0.05 0.04 0.01 0.01 0.01 0.01 0.00 0.00 0.00 0.00 0.00 0.00 0.00 0.00 0.00 0.00 0.00 0.00 0.00 0.00 0.00 0.00 0.00
0.00 0.00 0.00 0.00 0.00 0.00 0.00 0.00 0.04 0.04 0.05 0.05 0.05 0.05 0.09 0.10 0.10 0.06 0.10 0.22 0.22 0.47 0.51 0.45 0.55 0.55 0.67 0.69 1.00 1.00 1.23 1.44 1.97 1.97 2.08 1.23 1.23 0.92 0.93 1.07 1.07 0.42 0.35 0.19 0.01 0.01 0.01 0.04 0.03 0.03 0.01 0.01 0.00 0.00 0.00 0.00 0.00 0.01 0.06 0.21 0.21 0.16 0.11 0.11 0.17 0.17 0.09 0.00 0.00 0.00 0.04 0.04 0.03 0.03 0.01 0.00 0.00 0.00 0.00 0.05 0.05 0.03 0.03 0.01 0.01 0.01 0.00 0.00 0.00 0.00 0.00 0.00 0.00 0.00 0.00 0.00 0.00 0.00 0.00 0.00 0.00 0.00 0.00
0.00 0.00 0.00 0.00 0.00 0.00 0.00 0.00 0.04 0.04 0.06 0.07 0.07 0.07 0.09 0.09 0.09 0.08 0.11 0.23 0.23 0.59 0.71 0.48 0.57 0.57 0.65 0.73 0.78 0.78 1.06 1.22 1.90 1.90 1.99 1.54 1.54 1.13 0.76 0.92 0.92 1.03 0.66 0.36 0.13 0.13 0.07 0.02 0.05 0.05 0.03 0.01 0.00 0.00 0.00 0.00 0.00 0.00 0.07 0.13 0.13 0.17 0.12 0.11 0.14 0.14 0.19 0.00 0.00 0.00 0.00 0.03 0.00 0.00 0.01 0.00 0.00 0.00 0.01 0.05 0.05 0.02 0.01 0.00 0.01 0.01 0.00 0.00 0.00 0.00 0.00 0.00 0.00 0.00 0.00 0.00 0.00 0.00 0.00 0.00 0.00 0.00 0.00
0.00 0.00 0.00 0.00 0.00 0.00 0.00 0.00 0.03 0.03 0.06 0.10 0.11 0.11 0.10 0.08 0.08 0.09 0.12 0.23 0.23 0.63 0.83 0.69 0.72 0.72 0.64 0.76 0.79 0.79 0.90 1.03 1.54 1.54 1.58 1.96 1.96 1.42 0.99 0.63 0.63 0.61 0.98 0.62 0.48 0.48 0.14 0.04 0.04 0.04 0.03 0.00 0.00 0.00 0.00 0.00 0.00 0.00 0.07 0.14 0.14 0.16 0.13 0.11 0.14 0.14 0.16 0.14 0.00 0.00 0.00 0.02 0.00 0.00 0.02 0.00 0.00 0.00 0.03 0.02 0.02 0.01 0.00 0.00 0.01 0.01 0.00 0.00 0.00 0.00 0.00 0.00 0.00 0.00 0.00 0.00 0.00 0.00 0.00 0.00 0.00 0.00 0.00
0.02 0.01 0.01 0.00 0.00 0.00 0.00 0.00 0.04 0.04 0.07 0.09 0.09 0.09 0.08 0.07 0.07 0.07 0.15 0.26 0.26 0.72 0.89 0.92 0.85 0.85 0.75 0.83 0.82 0.82 0.83 0.93 0.98 0.98 1.23 1.70 1.70 1.76 1.31 0.61 0.61 0.60 0.70 1.04 0.62 0.62 0.18 0.04 0.01 0.01 0.02 0.01 0.01 0.01 0.00 0.00 0.00 0.00 0.03 0.17 0.17 0.15 0.14 0.11 0.11 0.11 0.14 0.13 0.03 0.03 0.01 0.00 0.00 0.00 0.01 0.00 0.00 0.00 0.01 0.00 0.00 0.00 0.00 0.00 0.01 0.01 0.00 0.00 0.00 0.00 0.00 0.00 0.00 0.00 0.00 0.00 0.00 0.00 0.00 0.00 0.00 0.00 0.00
0.01 0.00 0.00 0.00 0.00 0.00 0.00 0.01 0.04 0.04 0.07 0.08 0.07 0.07 0.07 0.06 0.06 0.07 0.20 0.32 0.32 0.49 0.92 0.99 0.94 0.94 0.86 0.81 0.95 0.95 0.96 0.89 0.91 0.91 0.99 1.31 1.31 1.80 1.56 1.24 1.24 0.87 0.68 1.26 0.93 0.93 0.53 0.09 0.01 0.01 0.02 0.01 0.00 0.00 0.00 0.00 0.00 0.01 0.05 0.18 0.18 0.16 0.13 0.10 0.14 0.14 0.14 0.12 0.06 0.06 0.02 0.00 0.00 0.00 0.00 0.00 0.00 0.00 0.00 0.00 0.00 0.00 0.00 0.00 0.00 0.00 0.00 0.00 0.00 0.00 0.00 0.00 0.00 0.00 0.00 0.00 0.00 0.00 0.00 0.00 0.00 0.00 0.00
0.00 0.00 0.00 0.00 0.00 0.00 0.00 0.00 0.01 0.01 0.05 0.05 0.06 0.06 0.05 0.06 0.06 0.07 0.09 0.36 0.36 0.56 0.91 1.09 1.07 1.07 0.98 0.85 0.94 0.94 1.09 0.99 0.99 0.99 0.90 1.03 1.03 1.35 1.57 1.55 1.55 1.25 0.97 0.84 1.20 1.20 0.78 0.26 0.01 0.01 0.01 0.00 0.00 0.00 0.00 0.00 0.00 0.02 0.06 0.11 0.11 0.17 0.13 0.12 0.15 0.15 0.17 0.11 0.08 0.08 0.02 0.00 0.00 0.00 0.00 0.00 0.00 0.00 0.00 0.00 0.00 0.00 0.00 0.01 0.00 0.00 0.00 0.00 0.00 0.00 0.00 0.00 0.00 0.00 0.00 0.00 0.00 0.00 0.00 0.00 0.00 0.00 0.00
0.01 0.00 0.00 0.00 0.00 0.00 0.00 0.01 0.01 0.01 0.04 0.04 0.04 0.04 0.04 0.04 0.04 0.05 0.09 0.39 0.39 0.57 0.84 0.94 1.13 1.13 1.21 1.08 0.91 0.91 1.12 1.11 1.12 1.12 1.01 0.91 0.91 1.12 1.34 1.56 1.56 1.68 1.33 1.02 1.13 1.13 1.19 0.50 0.11 0.11 0.02 0.00 0.00 0.00 0.00 0.00 0.00 0.00 0.06 0.12 0.12 0.16 0.15 0.13 0.17 0.17 0.18 0.09 0.06 0.06 0.02 0.01 0.00 0.00 0.00 0.00 0.00 0.00 0.00 0.00 0.00 0.00 0.00 0.01 0.00 0.00 0.00 0.00 0.00 0.00 0.00 0.00 0.00 0.00 0.00 0.00 0.00 0.00 0.00 0.00 0.00 0.00 0.00
0.01 0.01 0.00 0.00 0.00 0.00 0.00 0.01 0.02 0.02 0.04 0.04 0.03 0.03 0.03 0.03 0.03 0.05 0.08 0.38 0.38 0.57 0.82 0.90 1.14 1.14 1.31 1.27 1.01 1.01 1.08 1.23 1.26 1.26 1.20 0.90 0.90 0.99 1.16 1.36 1.36 1.44 1.61 1.39 0.91 0.91 1.28 1.35 0.35 0.35 0.08 0.00 0.00 0.00 0.00 0.00 0.00 0.00 0.03 0.16 0.16 0.18 0.15 0.12 0.12 0.12 0.17 0.13 0.05 0.05 0.01 0.02 0.00 0.00 0.00 0.00 0.00 0.00 0.00 0.00 0.00 0.00 0.00 0.00 0.00 0.00 0.00 0.00 0.00 0.00 0.00 0.00 0.00 0.00 0.00 0.00 0.00 0.00 0.00 0.00 0.00 0.00 0.00
0.00 0.01 0.01 0.00 0.00 0.00 0.00 0.01 0.01 0.01 0.03 0.04 0.07 0.07 0.06 0.05 0.05 0.04 0.07 0.13 0.13 0.58 0.82 0.86 0.97 0.97 1.40 1.47 1.45 1.45 1.33 1.30 1.42 1.42 1.34 1.24 1.24 0.93 1.02 1.30 1.30 1.09 0.83 1.28 1.46 1.46 1.05 1.08 1.37 1.37 0.53 0.11 0.06 0.06 0.04 0.00 0.00 0.01 0.10 0.13 0.13 0.17 0.17 0.16 0.12 0.12 0.16 0.15 0.11 0.11 0.00 0.00 0.00 0.00 0.00 0.00 0.00 0.00 0.00 0.00 0.00 0.00 0.00 0.00 0.00 0.00 0.00 0.01 0.00 0.00 0.00 0.00 0.00 0.00 0.00 0.00 0.00 0.00 0.00 0.00 0.00 0.00 0.00
0.01 0.01 0.01 0.00 0.00 0.00 0.01 0.01 0.02 0.02 0.03 0.04 0.05 0.05 0.06 0.05 0.05 0.04 0.05 0.13 0.13 0.58 0.80 0.94 0.95 0.95 1.08 1.39 1.46 1.46 1.40 1.43 1.40 1.40 1.53 1.38 1.38 0.90 0.90 0.91 0.91 1.04 0.72 0.83 1.22 1.22 1.17 1.07 1.14 1.14 0.86 0.30 0.18 0.18 0.03 0.00 0.00 0.00 0.11 0.15 0.15 0.18 0.18 0.15 0.13 0.13 0.16 0.16 0.11 0.11 0.00 0.00 0.00 0.00 0.00 0.00 0.00 0.00 0.00 0.00 0.00 0.00 0.00 0.00 0.00 0.00 0.00 0.01 0.00 0.00 0.00 0.00 0.00 0.00 0.00 0.00 0.00 0.00 0.00 0.00 0.00 0.00 0.00
0.02 0.01 0.01 0.01 0.01 0.01 0.02 0.02 0.02 0.02 0.03 0.03 0.03 0.03 0.05 0.06 0.06 0.06 0.05 0.14 0.14 0.42 0.70 0.95 0.97 0.97 1.03 1.25 1.37 1.37 1.41 1.40 1.46 1.46 1.70 1.60 1.60 1.21 0.87 0.81 0.81 0.90 0.68 0.49 0.80 0.80 0.78 1.10 1.02 1.02 1.19 0.53 0.27 0.27 0.12 0.02 0.02 0.01 0.11 0.14 0.14 0.20 0.18 0.18 0.21 0.21 0.16 0.14 0.13 0.13 0.00 0.00 0.00 0.00 0.00 0.00 0.00 0.00 0.00 0.00 0.00 0.00 0.00 0.00 0.00 0.00 0.00 0.00 0.00 0.00 0.00 0.00 0.00 0.00 0.00 0.00 0.00 0.00 0.00 0.00 0.00 0.00 0.00
0.02 0.02 0.01 0.01 0.02 0.02 0.02 0.02 0.02 0.02 0.02 0.03 0.03 0.03 0.05 0.06 0.06 0.07 0.06 0.16 0.16 0.37 0.57 0.84 1.00 1.00 1.04 1.10 1.21 1.21 1.30 1.27 1.42 1.42 1.51 1.78 1.78 1.46 0.90 0.80 0.80 0.83 0.66 0.50 0.50 0.50 0.53 0.75 0.98 0.98 0.93 0.94 0.40 0.40 0.16 0.02 0.02 0.02 0.07 0.13 0.13 0.21 0.14 0.24 0.25 0.25 0.15 0.13 0.13 0.13 0.02 0.00 0.00 0.00 0.00 0.00 0.00 0.00 0.00 0.00 0.00 0.00 0.00 0.00 0.00 0.00 0.00 0.00 0.00 0.00 0.00 0.00 0.00 0.00 0.00 0.00 0.00 0.00 0.00 0.00 0.00 0.00 0.00
0.02 0.02 0.01 0.01 0.02 0.02 0.02 0.03 0.02 0.02 0.02 0.02 0.03 0.03 0.03 0.06 0.06 0.05 0.09 0.19 0.19 0.25 0.54 0.71 0.96 0.96 1.08 1.11 1.04 1.04 0.93 1.12 1.26 1.26 1.39 1.85 1.85 1.72 1.69 0.93 0.93 0.80 0.67 0.53 0.42 0.42 0.39 0.48 0.81 0.81 0.78 0.71 0.40 0.40 0.20 0.11 0.11 0.04 0.06 0.14 0.14 0.17 0.14 0.23 0.32 0.32 0.27 0.15 0.13 0.13 0.11 0.00 0.00 0.00 0.00 0.00 0.00 0.00 0.00 0.00 0.00 0.00 0.00 0.00 0.00 0.00 0.00 0.00 0.00 0.00 0.00 0.00 0.00 0.00 0.00 0.00 0.00 0.00 0.00 0.00 0.00 0.00 0.00
0.02 0.02 0.02 0.01 0.02 0.02 0.02 0.03 0.02 0.02 0.03 0.02 0.02 0.02 0.04 0.05 0.05 0.06 0.12 0.17 0.17 0.23 0.50 0.68 0.74 0.74 1.06 1.10 0.95 0.95 0.82 0.86 1.09 1.09 1.21 1.66 1.66 1.84 1.78 1.15 1.15 0.87 0.68 0.56 0.45 0.45 0.29 0.32 0.43 0.43 0.63 0.57 0.35 0.35 0.18 0.10 0.10 0.05 0.08 0.12 0.12 0.18 0.18 0.23 0.34 0.34 0.29 0.15 0.13 0.13 0.11 0.00 0.00 0.00 0.00 0.00 0.00 0.00 0.00 0.00 0.00 0.00 0.00 0.00 0.00 0.00 0.00 0.00 0.00 0.00 0.00 0.00 0.00 0.00 0.00 0.00 0.00 0.00 0.00 0.00 0.00 0.00 0.00
0.03 0.03 0.03 0.02 0.02 0.02 0.02 0.03 0.03 0.03 0.03 0.02 0.03 0.03 0.04 0.04 0.04 0.06 0.05 0.17 0.17 0.19 0.44 0.64 0.71 0.71 1.03 1.19 0.95 0.95 0.81 0.75 0.91 0.91 1.06 1.21 1.21 1.68 1.74 1.41 1.41 1.03 0.76 0.51 0.47 0.47 0.35 0.21 0.29 0.29 0.46 0.35 0.30 0.30 0.14 0.07 0.07 0.06 0.08 0.12 0.12 0.15 0.19 0.26 0.36 0.36 0.31 0.20 0.12 0.12 0.12 0.08 0.00 0.00 0.00 0.00 0.00 0.00 0.00 0.00 0.00 0.00 0.00 0.00 0.00 0.00 0.00 0.00 0.00 0.00 0.00 0.00 0.00 0.00 0.00 0.00 0.00 0.00 0.00 0.00 0.00 0.00 0.00
0.03 0.04 0.03 0.03 0.02 0.02 0.02 0.03 0.03 0.03 0.02 0.02 0.05 0.05 0.04 0.04 0.04 0.06 0.05 0.20 0.20 0.19 0.20 0.66 0.72 0.72 0.96 1.13 1.13 1.13 0.84 0.70 0.76 0.76 0.90 1.04 1.04 1.49 1.55 1.71 1.71 1.32 0.92 0.63 0.43 0.43 0.33 0.14 0.18 0.18 0.23 0.21 0.23 0.23 0.17 0.04 0.04 0.06 0.09 0.13 0.13 0.11 0.23 0.28 0.29 0.29 0.34 0.19 0.12 0.12 0.12 0.09 0.01 0.01 0.00 0.00 0.00 0.00 0.00 0.00 0.00 0.00 0.00 0.00 0.00 0.00 0.00 0.00 0.00 0.00 0.00 0.01 0.00 0.00 0.00 0.00 0.00 0.00 0.00 0.00 0.00 0.00 0.00
0.05 0.05 0.03 0.04 0.03 0.03 0.02 0.02 0.02 0.02 0.03 0.02 0.03 0.03 0.04 0.06 0.06 0.06 0.10 0.20 0.20 0.20 0.20 0.73 0.82 0.82 0.76 1.05 1.06 1.06 0.93 0.73 0.64 0.64 0.76 0.91 0.91 1.04 1.22 1.46 1.46 1.50 1.18 0.77 0.45 0.45 0.36 0.20 0.10 0.10 0.14 0.10 0.13 0.13 0.12 0.03 0.03 0.08 0.11 0.13 0.13 0.06 0.12 0.29 0.29 0.29 0.40 0.21 0.13 0.13 0.12 0.09 0.02 0.02 0.01 0.00 0.00 0.00 0.00 0.00 0.00 0.00 0.00 0.00 0.00 0.00 0.00 0.00 0.00 0.00 0.00 0.01 0.00 0.00 0.00 0.00 0.00 0.00 0.00 0.00 0.00 0.00 0.00
0.10 0.08 0.06 0.05 0.05 0.05 0.03 0.02 0.02 0.02 0.03 0.02 0.04 0.04 0.04 0.05 0.05 0.09 0.11 0.14 0.14 0.20 0.19 0.66 0.95 0.95 0.91 0.95 1.01 1.01 1.06 0.80 0.66 0.66 0.66 0.80 0.80 0.73 0.94 1.14 1.14 1.30 1.32 0.98 0.58 0.58 0.39 0.24 0.05 0.05 0.07 0.05 0.06 0.06 0.07 0.06 0.06 0.09 0.13 0.20 0.20 0.08 0.11 0.15 0.28 0.28 0.41 0.40 0.13 0.13 0.11 0.08 0.02 0.02 0.01 0.00 0.00 0.00 0.00 0.00 0.00 0.00 0.00 0.00 0.00 0.00 0.00 0.00 0.00 0.00 0.00 0.01 0.00 0.00 0.00 0.00 0.00 0.00 0.00 0.00 0.00 0.00 0.00
0.14 0.14 0.12 0.06 0.07 0.07 0.04 0.03 0.03 0.03 0.03 0.03 0.04 0.04 0.05 0.06 0.06 0.11 0.13 0.15 0.15 0.15 0.19 0.27 0.93 0.93 1.02 0.88 0.99 0.99 1.01 0.91 0.73 0.73 0.60 0.67 0.67 0.59 0.74 0.86 0.86 1.01 1.20 1.05 0.87 0.87 0.52 0.26 0.08 0.08 0.03 0.01 0.02 0.02 0.03 0.03 0.03 0.04 0.17 0.20 0.20 0.10 0.13 0.15 0.27 0.27 0.40 0.40 0.14 0.14 0.11 0.07 0.03 0.03 0.01 0.01 0.01 0.00 0.00 0.00 0.00 0.00 0.00 0.00 0.00 0.00 0.00 0.00 0.00 0.00 0.00 0.01 0.00 0.00 0.00 0.00 0.00 0.00 0.00 0.00 0.00 0.00 0.00
0.17 0.18 0.18 0.11 0.09 0.09 0.07 0.04 0.03 0.03 0.03 0.03 0.04 0.04 0.06 0.08 0.08 0.11 0.14 0.18 0.18 0.14 0.19 0.30 0.85 0.85 1.06 1.11 0.91 0.91 0.96 1.04 0.87 0.87 0.64 0.53 0.53 0.47 0.51 0.65 0.65 0.75 0.81 0.92 0.78 0.78 0.73 0.29 0.09 0.09 0.00 0.00 0.00 0.00 0.01 0.03 0.03 0.08 0.17 0.22 0.22 0.19 0.15 0.15 0.17 0.17 0.37 0.38 0.35 0.35 0.10 0.04 0.09 0.09 0.01 0.00 0.00 0.00 0.00 0.00 0.00 0.00 0.00 0.00 0.00 0.00 0.00 0.00 0.00 0.00 0.00 0.00 0.00 0.00 0.00 0.00 0.00 0.00 0.00 0.00 0.00 0.00 0.00
0.18 0.19 0.20 0.16 0.12 0.12 0.09 0.08 0.05 0.05 0.03 0.04 0.04 0.04 0.06 0.09 0.09 0.12 0.15 0.21 0.21 0.22 0.19 0.34 0.75 0.75 1.01 1.07 0.85 0.85 0.90 1.04 0.97 0.97 0.73 0.54 0.54 0.41 0.39 0.51 0.51 0.55 0.56 0.69 0.60 0.60 0.65 0.31 0.09 0.09 0.00 0.00 0.00 0.00 0.00 0.04 0.04 0.08 0.11 0.23 0.23 0.20 0.14 0.15 0.15 0.15 0.15 0.37 0.31 0.31 0.22 0.03 0.08 0.08 0.06 0.00 0.00 0.00 0.00 0.00 0.00 0.00 0.00 0.00 0.00 0.00 0.00 0.00 0.00 0.00 0.00 0.00 0.00 0.00 0.00 0.00 0.00 0.00 0.00 0.00 0.00 0.00 0.00
0.18 0.19 0.20 0.18 0.14 0.14 0.11 0.10 0.06 0.06 0.04 0.04 0.05 0.05 0.07 0.13 0.13 0.14 0.16 0.18 0.18 0.27 0.26 0.35 0.54 0.54 0.88 1.00 0.93 0.93 0.92 0.99 1.06 1.06 0.85 0.61 0.61 0.42 0.37 0.37 0.37 0.40 0.43 0.44 0.50 0.50 0.52 0.48 0.10 0.10 0.00 0.00 0.00 0.00 0.00 0.02 0.02 0.07 0.12 0.23 0.23 0.21 0.16 0.18 0.15 0.15 0.17 0.30 0.25 0.25 0.25 0.16 0.08 0.08 0.07 0.04 0.04 0.00 0.00 0.00 0.00 0.00 0.00 0.00 0.00 0.00 0.00 0.00 0.00 0.00 0.00 0.00 0.00 0.00 0.00 0.00 0.00 0.00 0.00 0.00 0.00 0.00 0.00
0.20 0.20 0.22 0.19 0.15 0.15 0.15 0.12 0.07 0.07 0.04 0.05 0.05 0.05 0.12 0.17 0.17 0.16 0.18 0.18 0.18 0.23 0.32 0.40 0.53 0.53 0.80 0.94 1.10 1.10 0.98 0.91 1.00 1.00 0.98 0.82 0.82 0.44 0.38 0.38 0.38 0.36 0.39 0.44 0.47 0.47 0.48 0.43 0.10 0.10 0.00 0.00 0.00 0.00 0.00 0.01 0.01 0.07 0.13 0.14 0.14 0.21 0.19 0.18 0.16 0.16 0.15 0.16 0.21 0.21 0.23 0.18 0.14 0.14 0.09 0.07 0.07 0.00 0.00 0.00 0.00 0.00 0.00 0.00 0.00 0.00 0.00 0.00 0.00 0.00 0.00 0.00 0.00 0.00 0.00 0.00 0.00 0.00 0.00 0.00 0.00 0.00 0.00
0.29 0.22 0.25 0.23 0.21 0.21 0.20 0.14 0.10 0.10 0.03 0.05 0.06 0.06 0.10 0.22 0.22 0.21 0.21 0.19 0.19 0.23 0.37 0.47 0.56 0.56 0.86 0.96 1.10 1.10 1.01 0.91 0.93 0.93 1.04 0.91 0.91 0.62 0.42 0.35 0.35 0.40 0.42 0.42 0.44 0.44 0.48 0.40 0.25 0.25 0.01 0.00 0.00 0.00 0.00 0.00 0.00 0.00 0.16 0.17 0.17 0.19 0.20 0.20 0.25 0.25 0.14 0.16 0.16 0.16 0.21 0.18 0.14 0.14 0.11 0.08 0.08 0.04 0.00 0.00 0.00 0.00 0.00 0.00 0.00 0.00 0.00 0.00 0.00 0.00 0.00 0.00 0.00 0.00 0.00 0.00 0.00 0.00 0.00 0.00 0.00 0.00 0.00
0.27 0.29 0.32 0.32 0.28 0.28 0.24 0.14 0.13 0.13 0.06 0.06 0.07 0.07 0.12 0.25 0.25 0.25 0.24 0.25 0.25 0.30 0.32 0.50 0.61 0.61 0.84 0.99 1.13 1.13 1.20 1.01 0.96 0.96 1.01 0.97 0.97 0.74 0.45 0.32 0.32 0.34 0.44 0.35 0.38 0.38 0.46 0.40 0.28 0.28 0.01 0.00 0.00 0.00 0.00 0.00 0.00 0.00 0.15 0.18 0.18 0.17 0.25 0.25 0.28 0.28 0.18 0.14 0.15 0.15 0.19 0.15 0.11 0.11 0.14 0.10 0.10 0.05 0.00 0.00 0.00 0.00 0.00 0.00 0.00 0.00 0.00 0.00 0.00 0.00 0.00 0.00 0.00 0.00 0.00 0.00 0.00 0.00 0.00 0.00 0.00 0.00 0.00
0.29 0.37 0.37 0.38 0.31 0.31 0.28 0.22 0.14 0.14 0.13 0.07 0.09 0.09 0.16 0.28 0.28 0.33 0.29 0.29 0.29 0.34 0.38 0.53 0.67 0.67 0.84 1.03 1.12 1.12 1.18 1.15 1.05 1.05 0.97 0.97 0.97 0.88 0.64 0.31 0.31 0.31 0.33 0.26 0.26 0.26 0.39 0.37 0.27 0.27 0.09 0.00 0.00 0.00 0.00 0.00 0.00 0.00 0.06 0.27 0.27 0.19 0.19 0.33 0.31 0.31 0.21 0.16 0.12 0.12 0.16 0.20 0.12 0.12 0.16 0.18 0.18 0.05 0.00 0.01 0.01 0.00 0.00 0.00 0.00 0.00 0.00 0.00 0.00 0.00 0.00 0.00 0.00 0.00 0.00 0.00 0.00 0.00 0.00 0.00 0.00 0.00 0.00
0.40 0.41 0.40 0.32 0.32 0.32 0.26 0.25 0.21 0.21 0.21 0.16 0.17 0.17 0.18 0.24 0.24 0.32 0.31 0.30 0.30 0.35 0.40 0.53 0.65 0.65 0.86 0.96 0.96 0.96 1.09 1.18 1.02 1.02 1.01 0.98 0.98 1.03 0.81 0.38 0.38 0.30 0.33 0.19 0.18 0.18 0.25 0.32 0.25 0.25 0.08 0.01 0.00 0.00 0.00 0.00 0.00 0.00 0.02 0.27 0.27 0.29 0.25 0.13 0.29 0.29 0.25 0.20 0.12 0.12 0.12 0.19 0.13 0.13 0.15 0.17 0.17 0.13 0.00 0.01 0.01 0.01 0.00 0.00 0.00 0.00 0.00 0.00 0.00 0.00 0.00 0.00 0.00 0.00 0.00 0.00 0.00 0.00 0.00 0.00 0.00 0.00 0.00
0.69 0.43 0.49 0.29 0.34 0.34 0.29 0.21 0.23 0.23 0.29 0.27 0.25 0.25 0.24 0.26 0.26 0.35 0.37 0.33 0.33 0.33 0.43 0.50 0.52 0.52 0.80 0.92 0.87 0.87 0.98 1.11 0.96 0.96 0.84 0.94 0.94 1.03 0.97 0.69 0.69 0.35 0.34 0.31 0.13 0.13 0.18 0.22 0.21 0.21 0.07 0.02 0.01 0.01 0.00 0.00 0.00 0.00 0.00 0.27 0.27 0.37 0.31 0.18 0.22 0.22 0.31 0.26 0.25 0.25 0.10 0.18 0.10 0.10 0.14 0.13 0.13 0.10 0.06 0.01 0.01 0.01 0.00 0.00 0.00 0.00 0.00 0.00 0.00 0.00 0.00 0.00 0.00 0.00 0.00 0.00 0.00 0.00 0.00 0.00 0.00 0.00 0.00
0.67 0.44 0.46 0.37 0.35 0.35 0.32 0.21 0.28 0.28 0.32 0.37 0.22 0.22 0.21 0.30 0.30 0.40 0.40 0.37 0.37 0.36 0.47 0.53 0.54 0.54 0.70 0.90 0.86 0.86 0.95 1.09 0.93 0.93 0.86 0.85 0.85 0.93 0.95 0.77 0.77 0.43 0.37 0.34 0.13 0.13 0.14 0.18 0.12 0.12 0.06 0.06 0.03 0.03 0.00 0.00 0.00 0.00 0.00 0.21 0.21 0.45 0.36 0.23 0.17 0.17 0.38 0.25 0.30 0.30 0.15 0.17 0.11 0.11 0.09 0.12 0.12 0.09 0.05 0.01 0.01 0.02 0.00 0.00 0.00 0.00 0.00 0.00 0.00 0.00 0.00 0.00 0.00 0.00 0.00 0.00 0.00 0.00 0.00 0.00 0.00 0.00 0.00
0.71 0.46 0.47 0.44 0.52 0.52 0.41 0.23 0.26 0.26 0.33 0.44 0.26 0.26 0.23 0.30 0.30 0.41 0.42 0.41 0.41 0.41 0.48 0.61 0.63 0.63 0.69 0.85 0.91 0.91 0.94 1.04 1.16 1.16 0.92 0.83 0.83 0.77 0.93 0.82 0.82 0.74 0.45 0.33 0.18 0.18 0.14 0.16 0.16 0.16 0.06 0.07 0.05 0.05 0.01 0.00 0.00 0.00 0.00 0.09 0.09 0.38 0.42 0.29 0.18 0.18 0.19 0.18 0.26 0.26 0.22 0.16 0.11 0.11 0.09 0.09 0.09 0.07 0.05 0.00 0.00 0.02 0.01 0.00 0.00 0.00 0.00 0.00 0.00 0.00 0.00 0.00 0.00 0.00 0.00 0.00 0.00 0.00 0.00 0.00 0.00 0.00 0.00
0.77 0.44 0.45 0.44 0.50 0.50 0.87 0.39 0.19 0.19 0.37 0.50 0.42 0.42 0.30 0.35 0.35 0.36 0.41 0.45 0.45 0.43 0.50 0.70 0.72 0.72 0.68 0.79 0.87 0.87 0.89 1.00 1.08 1.08 0.98 0.77 0.77 0.70 0.93 0.94 0.94 0.77 0.49 0.32 0.16 0.16 0.15 0.16 0.17 0.17 0.12 0.06 0.07 0.07 0.08 0.00 0.00 0.00 0.00 0.01 0.01 0.22 0.30 0.40 0.30 0.30 0.23 0.18 0.18 0.18 0.19 0.12 0.16 0.16 0.07 0.06 0.06 0.04 0.04 0.00 0.00 0.01 0.01 0.00 0.00 0.00 0.00 0.00 0.00 0.00 0.00 0.00 0.00 0.00 0.00 0.00 0.00 0.00 0.00 0.00 0.00 0.00 0.00
0.66 0.61 0.59 0.45 0.63 0.63 1.69 1.24 0.49 0.49 0.43 0.48 0.51 0.51 0.46 0.38 0.38 0.49 0.46 0.41 0.41 0.42 0.62 0.76 0.89 0.89 0.90 0.74 0.75 0.75 0.78 0.93 0.98 0.98 1.14 0.80 0.80 0.60 0.67 0.99 0.99 1.02 0.86 0.29 0.12 0.12 0.05 0.10 0.14 0.14 0.20 0.17 0.09 0.09 0.09 0.07 0.07 0.00 0.00 0.00 0.00 0.00 0.12 0.22 0.25 0.25 0.32 0.26 0.12 0.12 0.18 0.15 0.09 0.09 0.13 0.03 0.03 0.01 0.02 0.00 0.00 0.02 0.03 0.01 0.00 0.00 0.00 0.00 0.00 0.00 0.00 0.00 0.00 0.00 0.00 0.00 0.00 0.00 0.00 0.00 0.00 0.00 0.00
0.79 0.70 0.66 0.53 0.71 0.71 2.49 1.79 0.58 0.58 0.41 0.43 0.51 0.51 0.51 0.34 0.34 0.45 0.47 0.47 0.47 0.39 0.36 0.70 0.82 0.82 0.97 0.89 0.76 0.76 0.78 0.83 0.86 0.86 1.07 0.92 0.92 0.61 0.61 0.87 0.87 1.02 0.99 0.63 0.11 0.11 0.04 0.07 0.11 0.11 0.18 0.20 0.10 0.10 0.10 0.09 0.09 0.03 0.00 0.00 0.00 0.00 0.07 0.13 0.18 0.18 0.22 0.34 0.18 0.18 0.18 0.17 0.07 0.07 0.13 0.07 0.07 0.01 0.02 0.00 0.00 0.00 0.04 0.02 0.00 0.00 0.00 0.00 0.00 0.00 0.00 0.00 0.00 0.00 0.00 0.00 0.00 0.00 0.00 0.00 0.00 0.00 0.00
0.92 0.79 0.74 0.56 0.71 0.71 2.90 1.61 0.65 0.65 0.41 0.49 0.66 0.66 0.67 0.40 0.40 0.45 0.45 0.45 0.45 0.34 0.30 0.65 0.74 0.74 0.86 1.03 0.87 0.87 0.77 0.70 0.73 0.73 0.94 1.24 1.24 0.66 0.57 0.73 0.73 1.04 1.01 0.69 0.10 0.10 0.05 0.06 0.07 0.07 0.12 0.14 0.10 0.10 0.09 0.10 0.10 0.04 0.01 0.00 0.00 0.00 0.00 0.08 0.12 0.12 0.13 0.18 0.26 0.26 0.20 0.29 0.06 0.06 0.10 0.09 0.09 0.06 0.02 0.01 0.01 0.01 0.02 0.02 0.00 0.00 0.00 0.00 0.00 0.00 0.00 0.00 0.00 0.00 0.00 0.00 0.00 0.00 0.00 0.00 0.00 0.00 0.00
1.08 0.88 0.81 0.61 0.86 0.86 1.59 1.37 0.69 0.69 0.50 0.85 1.22 1.22 1.04 0.42 0.42 0.44 0.40 0.37 0.37 0.34 0.30 0.62 0.76 0.76 0.87 0.92 1.04 1.04 0.92 1.12 0.76 0.76 0.79 1.12 1.12 0.84 0.56 0.61 0.61 0.83 1.03 0.79 0.39 0.39 0.08 0.12 0.06 0.06 0.06 0.10 0.10 0.10 0.10 0.12 0.12 0.09 0.02 0.00 0.00 0.00 0.01 0.03 0.06 0.06 0.06 0.08 0.18 0.18 0.24 0.32 0.26 0.26 0.05 0.09 0.09 0.07 0.03 0.01 0.01 0.01 0.02 0.05 0.00 0.00 0.00 0.00 0.00 0.00 0.00 0.00 0.00 0.00 0.00 0.00 0.00 0.00 0.00 0.00 0.00 0.00 0.00
1.42 1.45 1.13 0.73 0.95 0.95 1.34 1.09 0.75 0.75 0.63 1.19 1.47 1.47 1.42 0.37 0.37 0.42 0.36 0.36 0.36 0.33 0.29 0.32 0.74 0.74 0.91 0.99 1.26 1.26 1.24 1.40 1.23 1.23 0.77 0.97 0.97 1.23 0.70 0.60 0.60 0.89 1.01 0.87 0.50 0.50 0.18 0.12 0.09 0.09 0.05 0.07 0.10 0.10 0.11 0.14 0.14 0.14 0.04 0.01 0.01 0.00 0.01 0.05 0.06 0.06 0.04 0.03 0.07 0.07 0.20 0.36 0.37 0.37 0.16 0.07 0.07 0.10 0.07 0.02 0.02 0.01 0.02 0.05 0.01 0.01 0.00 0.00 0.00 0.00 0.01 0.00 0.00 0.00 0.00 0.00 0.00 0.00 0.00 0.00 0.00 0.00 0.00
1.37 1.55 1.62 0.90 0.99 0.99 0.94 0.99 0.80 0.80 0.71 0.97 1.42 1.42 1.57 1.03 1.03 0.37 0.32 0.33 0.33 0.34 0.29 0.33 0.65 0.65 0.90 1.05 1.19 1.19 1.35 1.34 1.24 1.24 0.82 1.14 1.14 1.43 0.85 0.90 0.90 1.08 1.08 0.95 0.58 0.58 0.24 0.11 0.10 0.10 0.05 0.05 0.09 0.09 0.13 0.17 0.17 0.13 0.05 0.01 0.01 0.01 0.01 0.03 0.05 0.05 0.06 0.02 0.05 0.05 0.11 0.40 0.46 0.46 0.26 0.10 0.10 0.16 0.12 0.03 0.03 0.03 0.02 0.04 0.02 0.02 0.01 0.00 0.00 0.00 0.01 0.01 0.00 0.00 0.00 0.00 0.00 0.00 0.00 0.00 0.00 0.00 0.00
1.40 1.70 1.77 1.11 0.86 0.86 0.78 1.06 0.85 0.85 0.69 0.65 1.27 1.27 1.93 1.35 1.35 0.36 0.29 0.29 0.29 0.33 0.31 0.36 0.36 0.36 0.80 0.98 1.20 1.20 1.22 1.11 1.16 1.16 0.88 1.33 1.33 1.80 1.63 1.28 1.28 1.17 1.29 1.11 0.77 0.77 0.33 0.28 0.12 0.12 0.06 0.05 0.10 0.10 0.18 0.19 0.19 0.18 0.07 0.03 0.03 0.02 0.01 0.02 0.05 0.05 0.07 0.03 0.05 0.05 0.06 0.15 0.55 0.55 0.45 0.19 0.19 0.20 0.18 0.05 0.05 0.03 0.01 0.03 0.02 0.02 0.01 0.00 0.00 0.00 0.01 0.02 0.01 0.01 0.00 0.00 0.00 0.00 0.00 0.00 0.00 0.00 0.00
1.19 1.37 1.68 1.66 1.04 1.04 0.80 0.78 0.92 0.92 0.79 0.62 0.96 0.96 1.53 1.22 1.22 0.66 0.37 0.50 0.50 0.40 0.37 0.43 0.38 0.38 0.72 0.93 1.12 1.12 0.95 0.92 1.01 1.01 1.38 1.20 1.20 1.63 2.01 1.70 1.70 1.49 1.47 1.41 1.01 1.01 0.58 0.48 0.24 0.24 0.09 0.05 0.05 0.05 0.20 0.21 0.21 0.18 0.13 0.05 0.05 0.02 0.01 0.03 0.05 0.05 0.08 0.10 0.05 0.05 0.05 0.08 0.29 0.29 0.53 0.29 0.29 0.22 0.24 0.09 0.09 0.04 0.01 0.02 0.02 0.02 0.02 0.00 0.00 0.00 0.02 0.03 0.01 0.01 0.00 0.00 0.00 0.00 0.00 0.00 0.00 0.00 0.00
0.83 1.35 1.85 2.00 1.47 1.47 1.01 0.82 0.93 0.93 0.91 0.80 0.99 0.99 1.20 1.01 1.01 0.86 0.68 0.73 0.73 0.52 0.33 0.47 0.51 0.51 0.62 0.87 0.99 0.99 0.87 0.78 0.87 0.87 1.26 1.19 1.19 1.12 1.52 1.13 1.13 1.78 1.75 1.78 1.63 1.63 0.85 0.76 0.44 0.44 0.12 0.07 0.06 0.06 0.10 0.18 0.18 0.16 0.12 0.12 0.12 0.04 0.02 0.04 0.05 0.05 0.09 0.12 0.14 0.14 0.05 0.04 0.21 0.21 0.52 0.34 0.34 0.20 0.23 0.29 0.29 0.07 0.01 0.01 0.04 0.04 0.03 0.00 0.00 0.00 0.00 0.03 0.02 0.02 0.01 0.00 0.00 0.00 0.00 0.00 0.00 0.00 0.00
0.67 1.34 1.58 1.95 1.88 1.88 1.39 0.92 0.84 0.84 0.93 0.80 0.86 0.86 1.03 0.99 0.99 1.03 0.87 0.83 0.83 0.67 0.26 0.34 0.51 0.51 0.53 0.74 0.85 0.85 0.81 0.83 0.85 0.85 0.90 1.21 1.21 0.94 1.00 1.11 1.11 1.31 1.81 2.19 2.22 2.22 1.79 1.29 0.79 0.79 0.46 0.12 0.10 0.10 0.15 0.18 0.18 0.14 0.12 0.12 0.12 0.06 0.02 0.04 0.08 0.08 0.08 0.10 0.16 0.16 0.08 0.03 0.13 0.13 0.38 0.59 0.59 0.17 0.19 0.29 0.29 0.27 0.01 0.01 0.03 0.03 0.03 0.01 0.00 0.00 0.00 0.01 0.03 0.03 0.01 0.00 0.00 0.00 0.00 0.00 0.00 0.00 0.00
0.53 0.58 1.09 1.66 1.87 1.87 1.64 1.18 0.77 0.77 0.81 0.84 0.63 0.63 0.74 0.71 0.71 0.78 0.62 0.72 0.72 0.74 0.52 0.25 0.32 0.32 0.54 0.68 0.82 0.82 0.80 0.83 0.96 0.96 0.94 0.91 0.91 1.10 1.71 1.56 1.56 1.18 1.23 1.86 2.31 2.31 2.17 1.53 1.27 1.27 0.75 0.48 0.28 0.28 0.18 0.20 0.20 0.13 0.11 0.09 0.09 0.10 0.03 0.04 0.08 0.08 0.10 0.09 0.15 0.15 0.13 0.07 0.05 0.05 0.27 0.51 0.51 0.34 0.15 0.26 0.26 0.29 0.15 0.00 0.03 0.03 0.03 0.04 0.00 0.00 0.00 0.01 0.03 0.03 0.04 0.01 0.01 0.00 0.00 0.00 0.00 0.00 0.00
0.36 0.41 0.61 1.26 1.81 1.81 1.75 1.70 1.12 1.12 0.78 0.71 0.71 0.71 0.53 0.55 0.55 0.52 0.48 0.49 0.49 0.57 0.56 0.28 0.28 0.28 0.40 0.58 0.68 0.68 0.76 0.80 1.09 1.09 1.18 0.90 0.90 0.99 1.56 1.39 1.39 1.00 0.81 1.16 1.92 1.92 1.49 1.27 1.24 1.24 0.96 0.58 0.35 0.35 0.23 0.20 0.20 0.18 0.11 0.08 0.08 0.08 0.10 0.05 0.09 0.09 0.09 0.09 0.12 0.12 0.16 0.10 0.05 0.05 0.16 0.37 0.37 0.22 0.14 0.19 0.19 0.26 0.20 0.05 0.03 0.03 0.02 0.04 0.02 0.02 0.00 0.00 0.03 0.03 0.04 0.03 0.03 0.00 0.00 0.00 0.00 0.00 0.00
0.34 0.34 0.40 0.70 1.59 1.59 2.01 2.03 1.86 1.86 0.93 0.67 0.61 0.61 0.45 0.46 0.46 0.43 0.37 0.36 0.36 0.39 0.45 0.48 0.33 0.33 0.31 0.42 0.59 0.59 0.69 0.77 0.83 0.83 1.21 1.14 1.14 0.92 0.90 1.29 1.29 1.21 1.01 0.90 1.22 1.22 0.90 0.95 0.90 0.90 0.89 0.56 0.60 0.60 0.45 0.27 0.27 0.23 0.19 0.08 0.08 0.08 0.13 0.08 0.07 0.07 0.07 0.10 0.14 0.14 0.16 0.12 0.05 0.05 0.02 0.19 0.19 0.12 0.11 0.10 0.10 0.19 0.23 0.10 0.01 0.01 0.01 0.04 0.02 0.02 0.00 0.00 0.02 0.02 0.04 0.04 0.04 0.03 0.00 0.00 0.00 0.00 0.00
0.28 0.32 0.32 0.42 1.19 1.19 1.67 2.04 2.04 2.04 1.26 0.81 0.56 0.56 0.51 0.54 0.54 0.52 0.44 0.29 0.29 0.30 0.34 0.35 0.32 0.32 0.26 0.29 0.29 0.29 0.66 0.74 0.76 0.76 0.84 1.18 1.18 1.06 1.05 1.11 1.11 1.29 1.46 1.55 0.77 0.77 0.67 0.76 0.85 0.85 0.86 0.71 0.74 0.74 0.57 0.37 0.37 0.36 0.27 0.28 0.28 0.08 0.10 0.09 0.06 0.06 0.06 0.08 0.15 0.15 0.21 0.18 0.08 0.08 0.05 0.02 0.02 0.07 0.09 0.09 0.09 0.08 0.23 0.16 0.03 0.03 0.01 0.01 0.03 0.03 0.00 0.00 0.00 0.00 0.03 0.04 0.04 0.03 0.01 0.00 0.00 0.00 0.00
0.27 0.31 0.29 0.33 0.43 0.43 0.95 1.55 1.77 1.77 1.53 1.09 0.76 0.76 0.54 0.39 0.39 0.42 0.51 0.34 0.34 0.31 0.29 0.27 0.30 0.30 0.24 0.18 0.17 0.17 0.62 0.77 0.76 0.76 0.69 0.71 0.71 0.68 1.08 1.05 1.05 0.79 0.89 1.05 0.52 0.52 0.65 0.66 0.97 0.97 1.10 0.79 0.63 0.63 0.46 0.37 0.37 0.37 0.36 0.40 0.40 0.17 0.08 0.08 0.07 0.07 0.05 0.07 0.16 0.16 0.19 0.27 0.09 0.09 0.05 0.03 0.03 0.03 0.07 0.09 0.09 0.07 0.07 0.19 0.07 0.07 0.02 0.00 0.02 0.02 0.01 0.00 0.00 0.00 0.01 0.03 0.03 0.03 0.02 0.01 0.01 0.00 0.00
0.17 0.30 0.30 0.30 0.34 0.34 0.44 0.89 1.39 1.39 1.42 1.04 0.83 0.83 0.67 0.45 0.45 0.49 0.65 0.45 0.45 0.28 0.28 0.21 0.17 0.17 0.21 0.14 0.13 0.13 0.22 0.74 0.84 0.84 0.70 0.50 0.50 0.53 0.66 0.91 0.91 0.69 0.46 0.36 0.34 0.34 0.75 0.82 0.74 0.74 0.76 0.80 0.66 0.66 0.43 0.36 0.36 0.45 0.37 0.41 0.41 0.42 0.10 0.10 0.09 0.09 0.06 0.06 0.15 0.15 0.19 0.22 0.29 0.29 0.04 0.05 0.05 0.04 0.03 0.09 0.09 0.08 0.05 0.12 0.20 0.20 0.04 0.01 0.01 0.01 0.02 0.00 0.00 0.00 0.01 0.02 0.02 0.03 0.02 0.01 0.01 0.00 0.00
0.05 0.31 0.31 0.29 0.30 0.30 0.31 0.41 0.95 0.95 1.20 0.89 0.74 0.74 0.60 0.57 0.57 0.39 0.55 0.58 0.58 0.29 0.23 0.19 0.15 0.15 0.16 0.12 0.12 0.12 0.23 0.56 0.81 0.81 0.86 0.66 0.66 0.49 0.51 0.60 0.60 0.88 0.57 0.36 0.50 0.50 0.39 0.87 0.54 0.54 0.47 0.81 1.00 1.00 0.65 0.48 0.48 0.46 0.59 0.50 0.50 0.45 0.41 0.14 0.13 0.13 0.07 0.07 0.05 0.05 0.15 0.19 0.27 0.27 0.23 0.08 0.08 0.06 0.03 0.04 0.04 0.09 0.05 0.08 0.18 0.18 0.16 0.01 0.01 0.01 0.01 0.01 0.00 0.00 0.00 0.01 0.01 0.03 0.03 0.01 0.01 0.00 0.00
0.02 0.05 0.30 0.30 0.27 0.27 0.27 0.27 0.43 0.43 1.13 0.76 0.65 0.65 0.61 0.55 0.55 0.38 0.44 0.55 0.55 0.42 0.25 0.17 0.13 0.13 0.08 0.07 0.10 0.10 0.21 0.31 0.58 0.58 0.84 1.05 1.05 0.97 0.48 0.51 0.51 0.60 0.78 0.57 0.61 0.61 0.49 0.42 0.47 0.47 0.40 0.30 0.57 0.57 0.92 0.55 0.55 0.37 0.34 0.53 0.53 0.55 0.51 0.46 0.15 0.15 0.09 0.07 0.05 0.05 0.09 0.17 0.24 0.24 0.24 0.18 0.18 0.08 0.04 0.03 0.03 0.06 0.09 0.05 0.13 0.13 0.15 0.10 0.00 0.00 0.01 0.01 0.00 0.00 0.00 0.01 0.01 0.02 0.02 0.02 0.02 0.01 0.01
0.01 0.02 0.19 0.28 0.30 0.30 0.30 0.24 0.27 0.27 0.76 0.72 0.61 0.61 0.53 0.51 0.51 0.49 0.44 0.53 0.53 0.43 0.29 0.19 0.11 0.11 0.06 0.05 0.07 0.07 0.15 0.26 0.49 0.49 0.64 0.94 0.94 0.73 0.46 0.44 0.44 0.45 0.56 0.60 0.59 0.59 0.60 0.50 0.35 0.35 0.29 0.30 0.37 0.37 0.62 0.64 0.64 0.35 0.45 0.44 0.44 0.54 0.61 0.57 0.47 0.47 0.20 0.13 0.07 0.07 0.14 0.12 0.22 0.22 0.25 0.18 0.18 0.12 0.05 0.03 0.03 0.05 0.09 0.05 0.08 0.08 0.11 0.12 0.05 0.05 0.02 0.01 0.00 0.00 0.00 0.00 0.00 0.00 0.02 0.02 0.02 0.02 0.01